New York, NY

11:02 PM EST on December 08, 2016 (GMT -0500)
Central Park

Weather History for KNYC - February, 2012

Change the Weather History Date:

Friday, February 17, 2012

  Actual Average Record
Temperature  
Mean Temperature 46 °F 36 °F  
Max Temperature 50 °F 42 °F 67 °F (1976)
Min Temperature 41 °F 29 °F -5 °F (1896)
Degree Days  
Heating Degree Days 19 29  
Month to date heating degree days 425 522  
Since 1 July heating degree days 2603 3211  
Cooling Degree Days 0 0  
Month to date cooling degree days 0 0  
Year to date cooling degree days 0 0  
Moisture  
Dew Point 33 °F    
Average Humidity 64    
Maximum Humidity 96    
Minimum Humidity 31    
Precipitation  
Precipitation 0.03 in 0.11 in 1.49 in (2003)
Month to date precipitation 0.38 1.83  
Year to date precipitation 3.61 5.48  
Snow  
Snow 0.00 in 0.40 in 16.30 in (2003)
Month to date snowfall 0.2 5.7  
Since 1 July snowfall 7.4 17.8  
Snow Depth 0.00 in    
Sea Level Pressure  
Sea Level Pressure 29.99 in    
Wind  
Wind Speed 7 mph (West)    
Max Wind Speed 16 mph    
Max Gust Speed 26 mph    
Visibility 7 miles    
Events Rain    
T = Trace of Precipitation, MM = Missing Value Source: NWS Daily Summary

Daily Weather History Graph

Daily Weather History Graph

Search for Another Location

Airport or City:

Trip Planner

Search our weather history database for the weather conditions in past years. The results will help you decide how hot, cold, wet, or windy it might be!

Date:

Astronomy

Feb. 17, 2012 Rise Set
Actual Time 6:47 AM EST 5:32 PM EST
Civil Twilight 6:19 AM EST 6:00 PM EST
Nautical Twilight 5:47 AM EST 6:32 PM EST
Astronomical Twilight 5:16 AM EST 7:04 PM EST
Moon 3:38 AM EST (2/17) 1:21 PM EST (2/17)
Length of Visible Light 11h 40m
Length of Day
10h 44m
Waning Crescent, 19% of the Moon is Illuminated
Feb 17
Waning Crescent
Feb 21
New
Feb 29
First Quarter
Mar 8
Full
Mar 14
Last Quarter

Hourly Weather History & Observations

Time (EST) Temp. Windchill Dew Point Humidity Pressure Visibility Wind Dir Wind Speed Gust Speed Precip Events Conditions
12:14 AM 44.6 °F 39.7 °F 41.0 °F 87% 30.04 in 7.0 mi South 9.2 mph - N/A   Overcast
12:51 AM 44.1 °F 39.5 °F 42.1 °F 93% 30.01 in 6.0 mi SSE 8.1 mph - N/A   Overcast
1:51 AM 45.0 °F 41.8 °F 42.1 °F 90% 29.99 in 7.0 mi Variable 5.8 mph - N/A   Overcast
2:51 AM 45.0 °F - 42.1 °F 90% 29.99 in 8.0 mi Calm Calm - N/A   Overcast
3:40 AM 44.6 °F 41.4 °F 42.8 °F 93% 29.99 in 2.5 mi Variable 5.8 mph - 0.01 in Rain Light Rain
3:47 AM 44.6 °F - 42.8 °F 93% 29.99 in 4.0 mi Calm Calm - 0.02 in Rain Light Rain
3:51 AM 45.0 °F 41.8 °F 43.0 °F 93% 29.97 in 5.0 mi Variable 5.8 mph - 0.02 in Rain Light Rain
4:51 AM 44.1 °F 40.8 °F 43.0 °F 96% 29.97 in 5.0 mi Variable 5.8 mph - 0.00 in   Overcast
5:51 AM 44.1 °F 40.8 °F 42.1 °F 93% 29.98 in 4.0 mi West 5.8 mph - 0.00 in Rain Light Rain
6:51 AM 43.0 °F 39.5 °F 41.0 °F 93% 30.00 in 4.0 mi West 5.8 mph - 0.01 in   Overcast
7:21 AM 42.8 °F 41.1 °F 41.0 °F 93% 30.03 in 2.5 mi Variable 3.5 mph - N/A   Overcast
7:30 AM 42.8 °F 38.0 °F 41.0 °F 93% 30.03 in 3.0 mi West 8.1 mph - N/A   Overcast
7:40 AM 42.8 °F 39.3 °F 41.0 °F 93% 30.03 in 3.0 mi West 5.8 mph - N/A   Overcast
7:51 AM 44.1 °F 40.8 °F 41.0 °F 89% 30.01 in 4.0 mi West 5.8 mph - N/A   Overcast
8:51 AM 45.0 °F 42.6 °F 39.9 °F 82% 30.02 in 5.0 mi Variable 4.6 mph - N/A   Haze
9:12 AM 44.6 °F 43.1 °F 39.2 °F 81% 30.04 in 6.0 mi Variable 3.5 mph - N/A   Haze
9:41 AM 44.6 °F 38.8 °F 35.6 °F 71% 30.03 in 10.0 mi West 11.5 mph 16.1 mph N/A   Overcast
9:51 AM 45.0 °F 40.1 °F 36.0 °F 71% 30.01 in 10.0 mi WNW 9.2 mph - N/A   Mostly Cloudy
11:51 AM 48.9 °F - 30.0 °F 48% 29.98 in 10.0 mi WNW 8.1 mph - N/A   Scattered Clouds
12:51 PM 48.9 °F - 28.0 °F 44% 29.95 in 10.0 mi Variable 6.9 mph 18.4 mph N/A   Scattered Clouds
1:51 PM 50.0 °F - 27.0 °F 41% 29.93 in 10.0 mi Variable 3.5 mph - N/A   Clear
2:51 PM 50.0 °F - 21.9 °F 33% 29.93 in 10.0 mi WNW 9.2 mph 18.4 mph N/A   Clear
3:51 PM 48.9 °F - 19.9 °F 32% 29.94 in 10.0 mi West 11.5 mph 18.4 mph N/A   Clear
4:51 PM 46.9 °F - 19.9 °F 34% 29.96 in 10.0 mi West 9.2 mph 19.6 mph N/A   Clear
5:51 PM 45.0 °F 37.9 °F 19.0 °F 36% 29.99 in 10.0 mi WNW 16.1 mph 26.5 mph N/A   Clear
6:51 PM 44.1 °F 40.1 °F 19.9 °F 38% 29.99 in 10.0 mi WNW 6.9 mph - N/A   Clear
7:51 PM 44.1 °F 40.1 °F 19.9 °F 38% 30.00 in 10.0 mi West 6.9 mph - N/A   Clear
8:51 PM 44.1 °F 40.1 °F 19.9 °F 38% 30.00 in 10.0 mi Variable 6.9 mph - N/A   Clear
9:51 PM 44.1 °F 40.1 °F 21.9 °F 42% 30.00 in 10.0 mi Variable 6.9 mph - N/A   Clear
10:51 PM 42.8 °F 38.6 °F 21.2 °F 42% 30.01 in 10.0 mi Variable 6.9 mph - N/A   Clear
11:51 PM 41.0 °F 37.1 °F 21.9 °F 47% 30.00 in 10.0 mi Variable 5.8 mph - N/A   Clear